Time,TemperatureF,DewpointF,PressureIn,WindDirection,WindDirectionDegrees,WindSpeedMPH,WindSpeedGustMPH,Humidity,HourlyPrecipIn,Conditions,Clouds,dailyrainin,SoftwareType,DateUTC
2013-03-15 00:02:00,33.0,31.0,30.07,SSW,213,6.0,10.0,91,0.00,,,0.01,,2013-03-15 05:02:00,
2013-03-15 00:12:00,33.0,31.0,30.07,SSW,213,6.0,10.0,91,0.00,,,0.01,,2013-03-15 05:12:00,
2013-03-15 00:22:00,32.0,30.0,30.07,SSE,159,5.0,8.0,91,0.00,,,0.01,,2013-03-15 05:22:00,
2013-03-15 00:32:00,32.0,30.0,30.06,South,176,5.0,9.0,91,0.00,,,0.01,,2013-03-15 05:32:00,
2013-03-15 00:42:00,32.0,30.0,30.06,South,176,5.0,9.0,91,0.00,,,0.01,,2013-03-15 05:42:00,
2013-03-15 00:52:00,32.0,30.0,30.06,South,174,2.0,6.0,92,0.00,,,0.01,,2013-03-15 05:52:00,
2013-03-15 01:02:00,32.0,30.0,30.06,South,174,2.0,6.0,92,0.00,,,0.01,,2013-03-15 06:02:00,
2013-03-15 01:12:00,32.0,30.0,30.06,South,174,2.0,6.0,92,0.00,,,0.01,,2013-03-15 06:12:00,
2013-03-15 01:22:00,32.0,30.0,30.06,South,174,2.0,6.0,92,0.00,,,0.01,,2013-03-15 06:22:00,
2013-03-15 01:32:00,32.0,30.0,30.07,SSW,199,0.0,1.0,91,0.00,,,0.01,,2013-03-15 06:32:00,
2013-03-15 01:42:00,32.0,30.0,30.07,SSW,199,0.0,1.0,91,0.00,,,0.01,,2013-03-15 06:42:00,
2013-03-15 01:53:00,31.0,29.0,30.06,SSW,199,0.0,1.0,92,0.00,,,0.01,,2013-03-15 06:53:00,
2013-03-15 02:02:00,31.0,29.0,30.06,SSW,199,0.0,1.0,93,0.00,,,0.01,,2013-03-15 07:02:00,
2013-03-15 02:12:00,31.0,29.0,30.06,SSW,199,0.0,1.0,93,0.00,,,0.01,,2013-03-15 07:12:00,
2013-03-15 02:22:00,30.0,28.0,30.06,SSW,199,0.0,0.0,93,0.00,,,0.01,,2013-03-15 07:22:00,
2013-03-15 02:32:00,30.0,28.0,30.05,SSW,199,0.0,0.0,94,0.00,,,0.01,,2013-03-15 07:32:00,
2013-03-15 02:42:00,30.0,28.0,30.05,SSW,199,0.0,0.0,94,0.00,,,0.01,,2013-03-15 07:42:00,
2013-03-15 02:52:00,30.0,28.0,30.04,South,174,0.0,2.0,94,0.00,,,0.01,,2013-03-15 07:52:00,
2013-03-15 03:02:00,31.0,29.0,30.03,South,177,2.0,4.0,94,0.00,,,0.01,,2013-03-15 08:02:00,
2013-03-15 03:12:00,31.0,29.0,30.03,South,177,2.0,4.0,94,0.00,,,0.01,,2013-03-15 08:12:00,
2013-03-15 03:22:00,31.0,29.0,30.02,South,180,2.0,4.0,93,0.00,,,0.01,,2013-03-15 08:22:00,
2013-03-15 03:32:00,31.0,29.0,30.01,SSE,167,2.0,5.0,94,0.00,,,0.01,,2013-03-15 08:32:00,
2013-03-15 03:42:00,31.0,29.0,30.01,SSE,167,2.0,5.0,94,0.00,,,0.01,,2013-03-15 08:42:00,
2013-03-15 03:52:00,31.0,29.0,30.01,SSW,197,3.0,6.0,93,0.00,,,0.01,,2013-03-15 08:52:00,
2013-03-15 04:02:00,31.0,29.0,30.01,SSW,198,3.0,6.0,93,0.00,,,0.01,,2013-03-15 09:02:00,
2013-03-15 04:12:00,31.0,29.0,30.01,SSW,198,3.0,6.0,93,0.00,,,0.01,,2013-03-15 09:12:00,
2013-03-15 04:22:00,31.0,29.0,30.00,SSW,194,2.0,7.0,93,0.00,,,0.01,,2013-03-15 09:22:00,
2013-03-15 04:33:00,31.0,29.0,29.99,South,188,1.0,6.0,93,0.00,,,0.01,,2013-03-15 09:33:00,
2013-03-15 04:43:00,31.0,29.0,29.99,South,188,1.0,6.0,93,0.00,,,0.01,,2013-03-15 09:43:00,
2013-03-15 04:53:00,31.0,29.0,29.98,South,178,1.0,4.0,93,0.00,,,0.01,,2013-03-15 09:53:00,
2013-03-15 05:03:00,31.0,29.0,29.97,South,188,0.0,4.0,93,0.00,,,0.01,,2013-03-15 10:03:00,
2013-03-15 05:12:00,31.0,29.0,29.97,South,188,0.0,4.0,93,0.00,,,0.01,,2013-03-15 10:12:00,
2013-03-15 05:23:00,31.0,29.0,29.97,South,188,0.0,4.0,93,0.00,,,0.01,,2013-03-15 10:23:00,
2013-03-15 05:33:00,30.0,28.0,29.97,SSW,200,1.0,5.0,93,0.00,,,0.01,,2013-03-15 10:33:00,
2013-03-15 05:42:00,30.0,28.0,29.97,SSW,200,1.0,5.0,93,0.00,,,0.01,,2013-03-15 10:42:00,
2013-03-15 05:52:00,31.0,29.0,29.96,South,184,1.0,3.0,93,0.00,,,0.01,,2013-03-15 10:52:00,
2013-03-15 06:03:00,31.0,29.0,29.97,SSW,202,0.0,4.0,93,0.00,,,0.01,,2013-03-15 11:03:00,
2013-03-15 06:12:00,31.0,29.0,29.97,SSW,202,0.0,4.0,93,0.00,,,0.01,,2013-03-15 11:12:00,
2013-03-15 06:22:00,31.0,29.0,29.97,SSW,195,0.0,2.0,93,0.00,,,0.01,,2013-03-15 11:22:00,
2013-03-15 06:32:00,30.0,28.0,29.97,South,185,0.0,2.0,93,0.00,,,0.01,,2013-03-15 11:32:00,
2013-03-15 06:42:00,30.0,28.0,29.97,South,185,0.0,2.0,93,0.00,,,0.01,,2013-03-15 11:42:00,
2013-03-15 06:52:00,30.0,28.0,29.96,South,191,0.0,2.0,93,0.00,,,0.01,,2013-03-15 11:52:00,
2013-03-15 07:02:00,30.0,28.0,29.97,South,191,0.0,1.0,94,0.00,,,0.01,,2013-03-15 12:02:00,
2013-03-15 07:12:00,30.0,28.0,29.97,South,191,0.0,1.0,94,0.00,,,0.01,,2013-03-15 12:12:00,
2013-03-15 07:22:00,30.0,28.0,29.96,South,191,0.0,1.0,94,0.00,,,0.01,,2013-03-15 12:22:00,
2013-03-15 07:32:00,30.0,28.0,29.97,South,191,0.0,2.0,94,0.00,,,0.01,,2013-03-15 12:32:00,
2013-03-15 07:42:00,30.0,28.0,29.97,South,191,0.0,2.0,94,0.00,,,0.01,,2013-03-15 12:42:00,
2013-03-15 07:52:00,30.0,28.0,29.96,South,182,1.0,4.0,94,0.00,,,0.01,,2013-03-15 12:52:00,
2013-03-15 08:02:00,30.0,29.0,29.96,South,174,1.0,3.0,95,0.00,,,0.01,,2013-03-15 13:02:00,
2013-03-15 08:12:00,30.0,29.0,29.96,South,174,1.0,3.0,95,0.00,,,0.01,,2013-03-15 13:12:00,
2013-03-15 08:22:00,31.0,30.0,29.96,South,175,1.0,3.0,95,0.00,,,0.01,,2013-03-15 13:22:00,
2013-03-15 08:32:00,31.0,29.0,29.96,South,177,1.0,4.0,94,0.00,,,0.01,,2013-03-15 13:32:00,
2013-03-15 08:42:00,31.0,29.0,29.96,South,177,1.0,4.0,94,0.00,,,0.01,,2013-03-15 13:42:00,
2013-03-15 08:52:00,32.0,30.0,29.96,South,175,2.0,4.0,94,0.00,,,0.01,,2013-03-15 13:52:00,
2013-03-15 09:02:00,32.0,30.0,29.96,South,176,1.0,4.0,94,0.00,,,0.01,,2013-03-15 14:02:00,
2013-03-15 09:12:00,32.0,30.0,29.96,South,176,1.0,4.0,94,0.00,,,0.01,,2013-03-15 14:12:00,
2013-03-15 09:22:00,33.0,31.0,29.96,SSW,198,0.0,3.0,94,0.00,,,0.01,,2013-03-15 14:22:00,
2013-03-15 09:32:00,33.0,31.0,29.96,SSW,198,0.0,3.0,94,0.00,,,0.01,,2013-03-15 14:32:00,
2013-03-15 09:42:00,33.0,31.0,29.96,SSW,198,0.0,3.0,94,0.00,,,0.01,,2013-03-15 14:42:00,
2013-03-15 09:52:00,34.0,32.0,29.96,SSW,195,1.0,4.0,93,0.00,,,0.01,,2013-03-15 14:52:00,
2013-03-15 10:02:00,34.0,32.0,29.96,West,277,0.0,2.0,93,0.00,,,0.01,,2013-03-15 15:02:00,
2013-03-15 10:13:00,34.0,32.0,29.96,West,277,0.0,2.0,93,0.00,,,0.01,,2013-03-15 15:13:00,
2013-03-15 10:23:00,35.0,33.0,29.96,WNW,285,1.0,4.0,92,0.00,,,0.01,,2013-03-15 15:23:00,
2013-03-15 10:33:00,36.0,34.0,29.95,West,263,1.0,3.0,91,0.00,,,0.01,,2013-03-15 15:33:00,
2013-03-15 10:42:00,36.0,34.0,29.95,West,263,1.0,3.0,91,0.00,,,0.01,,2013-03-15 15:42:00,
2013-03-15 10:52:00,37.0,35.0,29.95,WNW,299,1.0,4.0,91,0.00,,,0.01,,2013-03-15 15:52:00,
2013-03-15 11:03:00,37.0,34.0,29.95,SW,231,1.0,5.0,90,0.00,,,0.01,,2013-03-15 16:03:00,
2013-03-15 11:12:00,38.0,35.0,29.93,WSW,242,0.0,4.0,90,0.00,,,0.01,,2013-03-15 16:12:00,
2013-03-15 11:22:00,38.0,35.0,29.93,WSW,242,0.0,4.0,90,0.00,,,0.01,,2013-03-15 16:22:00,
2013-03-15 11:32:00,39.0,36.0,29.93,West,267,1.0,5.0,88,0.00,,,0.01,,2013-03-15 16:32:00,
2013-03-15 11:42:00,39.0,36.0,29.93,West,267,1.0,5.0,88,0.00,,,0.01,,2013-03-15 16:42:00,
2013-03-15 11:52:00,40.0,36.0,29.92,NW,326,2.0,5.0,87,0.00,,,0.01,,2013-03-15 16:52:00,
2013-03-15 12:02:00,41.0,37.0,29.92,NW,306,0.0,4.0,86,0.00,,,0.01,,2013-03-15 17:02:00,
2013-03-15 12:12:00,41.0,37.0,29.92,NW,306,0.0,4.0,86,0.00,,,0.01,,2013-03-15 17:12:00,
2013-03-15 12:22:00,41.0,37.0,29.92,West,260,1.0,5.0,84,0.00,,,0.01,,2013-03-15 17:22:00,
2013-03-15 12:32:00,41.0,37.0,29.91,NW,322,0.0,1.0,84,0.00,,,0.01,,2013-03-15 17:32:00,
2013-03-15 12:42:00,41.0,37.0,29.91,NW,322,0.0,1.0,84,0.00,,,0.01,,2013-03-15 17:42:00,
2013-03-15 12:52:00,42.0,37.0,29.89,South,180,0.0,4.0,82,0.00,,,0.01,,2013-03-15 17:52:00,
2013-03-15 13:02:00,43.0,39.0,29.90,South,177,1.0,4.0,85,0.00,,,0.01,,2013-03-15 18:02:00,
2013-03-15 13:12:00,43.0,39.0,29.90,South,177,1.0,4.0,85,0.00,,,0.01,,2013-03-15 18:12:00,
2013-03-15 13:22:00,43.0,38.0,29.91,SSW,192,1.0,5.0,84,0.00,,,0.01,,2013-03-15 18:22:00,
2013-03-15 13:32:00,43.0,38.0,29.90,SSW,203,0.0,2.0,82,0.00,,,0.01,,2013-03-15 18:32:00,
2013-03-15 13:42:00,43.0,38.0,29.90,SSW,203,0.0,2.0,82,0.00,,,0.01,,2013-03-15 18:42:00,
2013-03-15 13:52:00,44.0,39.0,29.90,South,190,0.0,4.0,81,0.00,,,0.01,,2013-03-15 18:52:00,
2013-03-15 14:02:00,44.0,39.0,29.90,South,190,0.0,4.0,81,0.00,,,0.01,,2013-03-15 19:02:00,
2013-03-15 14:12:00,44.0,39.0,29.90,South,190,0.0,4.0,81,0.00,,,0.01,,2013-03-15 19:12:00,
2013-03-15 14:22:00,44.0,39.0,29.89,NNW,340,0.0,4.0,81,0.00,,,0.01,,2013-03-15 19:22:00,
2013-03-15 14:32:00,45.0,40.0,29.88,North,360,0.0,1.0,81,0.00,,,0.01,,2013-03-15 19:32:00,
2013-03-15 14:42:00,45.0,40.0,29.88,North,360,0.0,1.0,81,0.00,,,0.01,,2013-03-15 19:42:00,
2013-03-15 14:52:00,46.0,40.0,29.86,North,360,0.0,1.0,80,0.00,,,0.01,,2013-03-15 19:52:00,
2013-03-15 15:02:00,46.0,40.0,29.85,North,11,0.0,1.0,78,0.00,,,0.01,,2013-03-15 20:02:00,
2013-03-15 15:12:00,46.0,40.0,29.85,North,11,0.0,1.0,78,0.00,,,0.01,,2013-03-15 20:12:00,
2013-03-15 15:22:00,47.0,40.0,29.85,East,81,0.0,1.0,77,0.00,,,0.01,,2013-03-15 20:22:00,
2013-03-15 15:32:00,47.0,40.0,29.86,ENE,61,0.0,1.0,76,0.00,,,0.01,,2013-03-15 20:32:00,
2013-03-15 15:42:00,47.0,40.0,29.86,ENE,61,0.0,1.0,76,0.00,,,0.01,,2013-03-15 20:42:00,
2013-03-15 15:52:00,46.0,40.0,29.85,ENE,70,0.0,0.0,78,0.00,,,0.01,,2013-03-15 20:52:00,
2013-03-15 16:02:00,46.0,40.0,29.85,ENE,59,0.0,1.0,78,0.00,,,0.01,,2013-03-15 21:02:00,
2013-03-15 16:12:00,46.0,40.0,29.85,ENE,59,0.0,1.0,78,0.00,,,0.01,,2013-03-15 21:12:00,
2013-03-15 16:22:00,46.0,40.0,29.85,NE,48,0.0,2.0,79,0.00,,,0.01,,2013-03-15 21:22:00,
2013-03-15 16:33:00,46.0,40.0,29.83,ENE,57,0.0,1.0,80,0.00,,,0.01,,2013-03-15 21:33:00,
2013-03-15 16:43:00,46.0,40.0,29.83,ENE,57,0.0,1.0,80,0.00,,,0.01,,2013-03-15 21:43:00,
2013-03-15 16:52:00,46.0,41.0,29.82,NE,41,0.0,1.0,81,0.00,,,0.01,,2013-03-15 21:52:00,
2013-03-15 17:03:00,46.0,41.0,29.80,NE,39,0.0,1.0,81,0.00,,,0.00,,2013-03-15 22:03:00,
2013-03-15 17:13:00,46.0,41.0,29.80,NE,39,0.0,1.0,81,0.00,,,0.00,,2013-03-15 22:13:00,
2013-03-15 17:22:00,46.0,41.0,29.79,East,94,0.0,3.0,81,0.00,,,0.00,,2013-03-15 22:22:00,
2013-03-15 17:32:00,46.0,41.0,29.79,East,94,0.0,3.0,81,0.00,,,0.00,,2013-03-15 22:32:00,
2013-03-15 17:42:00,46.0,41.0,29.79,East,94,0.0,3.0,81,0.00,,,0.00,,2013-03-15 22:42:00,
2013-03-15 17:52:00,45.0,41.0,29.80,ENE,61,0.0,1.0,86,0.00,,,0.00,,2013-03-15 22:52:00,
2013-03-15 18:02:00,45.0,41.0,29.78,ESE,107,0.0,1.0,87,0.00,,,0.00,,2013-03-15 23:02:00,
2013-03-15 18:12:00,45.0,41.0,29.78,ESE,107,0.0,1.0,87,0.00,,,0.00,,2013-03-15 23:12:00,
2013-03-15 18:22:00,45.0,41.0,29.77,ESE,112,0.0,3.0,87,0.00,,,0.00,,2013-03-15 23:22:00,
2013-03-15 18:32:00,44.0,41.0,29.76,NNE,30,0.0,2.0,88,0.00,,,0.00,,2013-03-15 23:32:00,
2013-03-15 18:42:00,44.0,41.0,29.76,NNE,30,0.0,2.0,88,0.00,,,0.00,,2013-03-15 23:42:00,
2013-03-15 18:52:00,44.0,41.0,29.76,ESE,121,0.0,2.0,89,0.00,,,0.00,,2013-03-15 23:52:00,
2013-03-15 19:02:00,44.0,41.0,29.77,ESE,121,0.0,1.0,89,0.00,,,0.00,,2013-03-16 00:02:00,
2013-03-15 19:12:00,44.0,41.0,29.77,ESE,121,0.0,1.0,89,0.00,,,0.00,,2013-03-16 00:12:00,
2013-03-15 19:22:00,44.0,41.0,29.78,ESE,121,0.0,0.0,90,0.00,,,0.00,,2013-03-16 00:22:00,
2013-03-15 19:32:00,43.0,40.0,29.78,ESE,121,0.0,1.0,90,0.00,,,0.00,,2013-03-16 00:32:00,
2013-03-15 19:42:00,43.0,40.0,29.78,ESE,121,0.0,1.0,90,0.00,,,0.00,,2013-03-16 00:42:00,
2013-03-15 19:52:00,42.0,39.0,29.79,ESE,121,0.0,0.0,90,0.00,,,0.00,,2013-03-16 00:52:00,
2013-03-15 20:02:00,42.0,40.0,29.78,ESE,121,0.0,0.0,92,0.00,,,0.00,,2013-03-16 01:02:00,
2013-03-15 20:12:00,42.0,40.0,29.78,ESE,121,0.0,0.0,92,0.00,,,0.00,,2013-03-16 01:12:00,
2013-03-15 20:21:00,42.0,40.0,29.78,ESE,121,0.0,0.0,92,0.00,,,0.00,,2013-03-16 01:21:00,
2013-03-15 20:32:00,42.0,40.0,29.77,ESE,121,0.0,1.0,92,0.00,,,0.00,,2013-03-16 01:32:00,
2013-03-15 20:42:00,42.0,40.0,29.77,ESE,121,0.0,1.0,92,0.00,,,0.00,,2013-03-16 01:42:00,
2013-03-15 20:52:00,41.0,39.0,29.77,ESE,121,0.0,0.0,92,0.00,,,0.00,,2013-03-16 01:52:00,
2013-03-15 21:02:00,41.0,39.0,29.76,NE,54,0.0,1.0,93,0.00,,,0.00,,2013-03-16 02:02:00,
2013-03-15 21:12:00,41.0,39.0,29.76,NE,54,0.0,1.0,93,0.00,,,0.00,,2013-03-16 02:12:00,
2013-03-15 21:23:00,42.0,40.0,29.76,NE,54,0.0,1.0,93,0.00,,,0.00,,2013-03-16 02:23:00,
2013-03-15 21:32:00,41.0,39.0,29.76,NE,54,0.0,1.0,92,0.00,,,0.00,,2013-03-16 02:32:00,
2013-03-15 21:42:00,41.0,39.0,29.76,NE,54,0.0,1.0,92,0.00,,,0.00,,2013-03-16 02:42:00,
2013-03-15 21:52:00,41.0,39.0,29.76,NE,55,0.0,1.0,93,0.00,,,0.00,,2013-03-16 02:52:00,
2013-03-15 22:02:00,40.0,38.0,29.75,NE,55,0.0,1.0,93,0.00,,,0.00,,2013-03-16 03:02:00,
2013-03-15 22:12:00,40.0,38.0,29.75,NE,55,0.0,1.0,93,0.00,,,0.00,,2013-03-16 03:12:00,
2013-03-15 22:22:00,39.0,37.0,29.74,NW,311,0.0,2.0,93,0.00,,,0.00,,2013-03-16 03:22:00,
2013-03-15 22:32:00,38.0,36.0,29.75,West,265,1.0,4.0,93,0.00,,,0.00,,2013-03-16 03:32:00,
2013-03-15 22:43:00,38.0,36.0,29.75,West,265,1.0,4.0,93,0.00,,,0.00,,2013-03-16 03:43:00,
2013-03-15 22:52:00,37.0,35.0,29.74,NNW,334,1.0,4.0,94,0.00,,,0.00,,2013-03-16 03:52:00,
2013-03-15 23:02:00,37.0,36.0,29.73,ESE,123,0.0,3.0,95,0.00,,,0.00,,2013-03-16 04:02:00,
2013-03-15 23:13:00,37.0,36.0,29.73,ESE,123,0.0,3.0,95,0.00,,,0.00,,2013-03-16 04:13:00,
2013-03-15 23:23:00,36.0,35.0,29.72,WNW,302,1.0,3.0,96,0.00,,,0.00,,2013-03-16 04:23:00,
2013-03-15 23:32:00,36.0,35.0,29.70,ESE,113,0.0,2.0,96,0.00,,,0.00,,2013-03-16 04:32:00,
2013-03-15 23:43:00,36.0,35.0,29.70,ESE,113,0.0,2.0,96,0.00,,,0.00,,2013-03-16 04:43:00,
2013-03-15 23:52:00,36.0,35.0,29.71,NNW,338,1.0,3.0,96,0.00,,,0.00,,2013-03-16 04:52:00,